Location: Newark
(45.2500°N, 7.5833°E)
Time: 11:11:39
(UTC+00:00)

A-11 Canister half - Pass Details

Date: 30 January 2020
Orbit: 1524 x 1684 km, 47.3° (Epoch: 19 February)

Event Time Altitude Azimuth Distance (km) Brightness Sun altitude
Rises 18:33:58 0° 272° (W) 4,683 13.1 -21.3°
Reaches altitude 10° 18:36:59 10° 274° (W) 3,710 12.1 -21.8°
Maximum altitude 18:46:24 79° 1° (N) 1,592 9.0 -23.5°
Enters shadow 18:50:40 39° 83° (E) 2,218 9.3 -24.2°
Drops below altitude 10° 18:56:08 10° 89° (E) 3,820 - -25.2°
Sets 18:59:17 0° 91° (E) 4,827 - -25.8°
